Time,TemperatureF,DewpointF,PressureIn,WindDirection,WindDirectionDegrees,WindSpeedMPH,WindSpeedGustMPH,Humidity,HourlyPrecipIn,Conditions,Clouds,dailyrainin,SolarRadiationWatts/m^2,SoftwareType,DateUTC
2013-10-08 00:14:00,44.3,42.0,30.11,WSW,252,0.0,0.0,92,0.00,,,0.00,0,weatherlink.com 1.10,2013-10-08 05:14:00,
2013-10-08 00:29:00,43.8,42.0,30.11,WSW,252,0.0,0.0,92,0.00,,,0.00,0,weatherlink.com 1.10,2013-10-08 05:29:00,
2013-10-08 00:44:00,43.0,41.0,30.11,WSW,252,0.0,0.0,93,0.00,,,0.00,0,weatherlink.com 1.10,2013-10-08 05:44:00,
2013-10-08 00:59:00,42.5,41.0,30.11,WSW,252,0.0,0.0,94,0.00,,,0.00,0,weatherlink.com 1.10,2013-10-08 05:59:00,
2013-10-08 01:14:00,42.5,41.0,30.11,WSW,252,0.0,0.0,95,0.00,,,0.00,0,weatherlink.com 1.10,2013-10-08 06:14:00,
2013-10-08 01:29:00,42.1,41.0,30.11,WSW,252,0.0,0.0,95,0.00,,,0.00,0,weatherlink.com 1.10,2013-10-08 06:29:00,
2013-10-08 01:44:00,41.4,40.0,30.12,WSW,252,0.0,0.0,94,0.00,,,0.00,0,weatherlink.com 1.10,2013-10-08 06:44:00,
2013-10-08 01:59:00,40.8,40.0,30.12,WSW,252,0.0,0.0,95,0.00,,,0.00,0,weatherlink.com 1.10,2013-10-08 06:59:00,
2013-10-08 02:14:00,40.7,40.0,30.12,WSW,252,0.0,0.0,96,0.00,,,0.00,0,weatherlink.com 1.10,2013-10-08 07:14:00,
2013-10-08 02:29:00,40.3,39.0,30.12,WSW,252,0.0,0.0,95,0.00,,,0.00,0,weatherlink.com 1.10,2013-10-08 07:29:00,
2013-10-08 02:44:00,40.5,40.0,30.13,WSW,252,0.0,0.0,97,0.00,,,0.00,0,weatherlink.com 1.10,2013-10-08 07:44:00,
2013-10-08 03:00:00,40.6,40.0,30.13,WSW,252,0.0,0.0,97,0.00,,,0.00,0,weatherlink.com 1.10,2013-10-08 08:00:00,
2013-10-08 03:15:00,40.5,40.0,30.13,WSW,252,0.0,0.0,97,0.00,,,0.00,0,weatherlink.com 1.10,2013-10-08 08:15:00,
2013-10-08 03:30:00,40.4,40.0,30.13,WSW,252,0.0,0.0,97,0.00,,,0.00,0,weatherlink.com 1.10,2013-10-08 08:30:00,
2013-10-08 03:45:00,39.9,39.0,30.13,WSW,252,0.0,0.0,96,0.00,,,0.00,0,weatherlink.com 1.10,2013-10-08 08:45:00,
2013-10-08 04:00:00,39.4,38.0,30.14,WSW,252,0.0,0.0,96,0.00,,,0.00,0,weatherlink.com 1.10,2013-10-08 09:00:00,
2013-10-08 04:15:00,39.9,39.0,30.14,WSW,252,0.0,0.0,97,0.00,,,0.00,0,weatherlink.com 1.10,2013-10-08 09:15:00,
2013-10-08 04:30:00,39.9,39.0,30.15,WSW,252,0.0,0.0,97,0.00,,,0.00,0,weatherlink.com 1.10,2013-10-08 09:30:00,
2013-10-08 04:45:00,39.5,39.0,30.14,WSW,252,0.0,0.0,97,0.00,,,0.00,0,weatherlink.com 1.10,2013-10-08 09:45:00,
2013-10-08 05:00:00,39.1,38.0,30.15,WSW,252,0.0,0.0,97,0.00,,,0.00,0,weatherlink.com 1.10,2013-10-08 10:00:00,
2013-10-08 05:15:00,38.7,38.0,30.15,WSW,252,0.0,0.0,97,0.00,,,0.00,0,weatherlink.com 1.10,2013-10-08 10:15:00,
2013-10-08 05:30:00,38.4,38.0,30.15,WSW,252,0.0,0.0,97,0.00,,,0.00,0,weatherlink.com 1.10,2013-10-08 10:30:00,
2013-10-08 05:45:00,38.3,38.0,30.16,WSW,252,0.0,0.0,97,0.00,,,0.00,0,weatherlink.com 1.10,2013-10-08 10:45:00,
2013-10-08 06:00:00,38.3,38.0,30.16,WSW,252,0.0,0.0,97,0.00,,,0.00,0,weatherlink.com 1.10,2013-10-08 11:00:00,
2013-10-08 06:15:00,38.5,38.0,30.16,WSW,252,0.0,0.0,97,0.00,,,0.00,0,weatherlink.com 1.10,2013-10-08 11:15:00,
2013-10-08 06:30:00,38.4,38.0,30.16,WSW,252,0.0,0.0,97,0.00,,,0.00,0,weatherlink.com 1.10,2013-10-08 11:30:00,
2013-10-08 06:45:00,38.8,38.0,30.16,WSW,252,0.0,0.0,98,0.00,,,0.00,0,weatherlink.com 1.10,2013-10-08 11:45:00,
2013-10-08 07:00:00,39.1,39.0,30.17,WSW,252,0.0,0.0,98,0.00,,,0.00,0,weatherlink.com 1.10,2013-10-08 12:00:00,
2013-10-08 07:15:00,39.6,39.0,30.17,WSW,252,0.0,0.0,98,0.00,,,0.00,7,weatherlink.com 1.10,2013-10-08 12:15:00,
2013-10-08 07:30:00,39.1,38.0,30.17,WSW,252,0.0,0.0,97,0.00,,,0.00,14,weatherlink.com 1.10,2013-10-08 12:30:00,
2013-10-08 07:45:00,39.5,39.0,30.17,WSW,252,0.0,0.0,98,0.00,,,0.00,18,weatherlink.com 1.10,2013-10-08 12:45:00,
2013-10-08 08:00:00,40.5,40.0,30.18,WSW,252,0.0,0.0,98,0.00,,,0.00,21,weatherlink.com 1.10,2013-10-08 13:00:00,
2013-10-08 08:15:00,41.9,41.0,30.18,WSW,252,0.0,0.0,98,0.00,,,0.00,26,weatherlink.com 1.10,2013-10-08 13:15:00,
2013-10-08 08:30:00,43.8,44.0,30.18,WSW,252,0.0,0.0,99,0.00,,,0.00,30,weatherlink.com 1.10,2013-10-08 13:30:00,
2013-10-08 08:45:00,47.5,47.0,30.18,WSW,252,0.0,0.0,99,0.00,,,0.00,28,weatherlink.com 1.10,2013-10-08 13:45:00,
2013-10-08 09:00:00,49.0,49.0,30.19,WSW,252,0.0,0.0,99,0.00,,,0.00,30,weatherlink.com 1.10,2013-10-08 14:00:00,
2013-10-08 09:15:00,50.7,51.0,30.18,WSW,252,0.0,0.0,99,0.00,,,0.00,32,weatherlink.com 1.10,2013-10-08 14:15:00,
2013-10-08 09:31:00,52.8,53.0,30.18,WSW,248,0.0,1.0,99,0.00,,,0.00,72,weatherlink.com 1.10,2013-10-08 14:31:00,
2013-10-08 09:46:00,55.8,52.0,30.18,South,173,0.0,1.0,86,0.00,,,0.00,81,weatherlink.com 1.10,2013-10-08 14:46:00,
2013-10-08 10:01:00,58.6,51.0,30.17,South,173,0.0,1.0,77,0.00,,,0.00,362,weatherlink.com 1.10,2013-10-08 15:01:00,
2013-10-08 10:16:00,60.4,52.0,30.17,SE,140,0.0,3.0,73,0.00,,,0.00,42,weatherlink.com 1.10,2013-10-08 15:16:00,
2013-10-08 10:31:00,61.8,53.0,30.17,SSW,203,1.0,2.0,73,0.00,,,0.00,40,weatherlink.com 1.10,2013-10-08 15:31:00,
2013-10-08 10:46:00,63.2,52.0,30.17,SSW,196,1.0,2.0,67,0.00,,,0.00,524,weatherlink.com 1.10,2013-10-08 15:46:00,
2013-10-08 11:01:00,64.9,52.0,30.17,SSW,196,1.0,2.0,64,0.00,,,0.00,555,weatherlink.com 1.10,2013-10-08 16:01:00,
2013-10-08 11:16:00,66.2,52.0,30.17,ESE,116,0.0,2.0,60,0.00,,,0.00,357,weatherlink.com 1.10,2013-10-08 16:16:00,
2013-10-08 11:31:00,66.7,52.0,30.17,South,177,0.0,3.0,59,0.00,,,0.00,165,weatherlink.com 1.10,2013-10-08 16:31:00,
2013-10-08 11:46:00,67.4,53.0,30.16,South,176,0.0,3.0,60,0.00,,,0.00,42,weatherlink.com 1.10,2013-10-08 16:46:00,
2013-10-08 12:01:00,67.8,53.0,30.16,South,175,1.0,3.0,60,0.00,,,0.00,35,weatherlink.com 1.10,2013-10-08 17:01:00,
2013-10-08 12:16:00,68.5,53.0,30.16,South,176,1.0,1.0,59,0.00,,,0.00,185,weatherlink.com 1.10,2013-10-08 17:16:00,
2013-10-08 12:31:00,68.9,53.0,30.16,SSW,209,1.0,3.0,57,0.00,,,0.00,26,weatherlink.com 1.10,2013-10-08 17:31:00,
2013-10-08 12:46:00,69.5,54.0,30.15,SSW,206,2.0,3.0,58,0.00,,,0.00,83,weatherlink.com 1.10,2013-10-08 17:46:00,
2013-10-08 13:01:00,70.2,53.0,30.14,SSW,202,0.0,2.0,55,0.00,,,0.00,37,weatherlink.com 1.10,2013-10-08 18:01:00,
2013-10-08 13:16:00,70.8,54.0,30.14,South,188,1.0,3.0,56,0.00,,,0.00,200,weatherlink.com 1.10,2013-10-08 18:16:00,
2013-10-08 13:31:00,71.4,53.0,30.13,South,181,1.0,5.0,52,0.00,,,0.00,652,weatherlink.com 1.10,2013-10-08 18:31:00,
2013-10-08 13:46:00,72.2,53.0,30.13,SSW,202,1.0,4.0,52,0.00,,,0.00,643,weatherlink.com 1.10,2013-10-08 18:46:00,
2013-10-08 14:02:00,72.6,52.0,30.12,SSE,157,2.0,4.0,49,0.00,,,0.00,631,weatherlink.com 1.10,2013-10-08 19:02:00,
2013-10-08 14:17:00,73.0,52.0,30.12,SSE,152,1.0,3.0,48,0.00,,,0.00,601,weatherlink.com 1.10,2013-10-08 19:17:00,
2013-10-08 14:32:00,73.4,53.0,30.12,South,171,0.0,3.0,49,0.00,,,0.00,591,weatherlink.com 1.10,2013-10-08 19:32:00,
2013-10-08 14:47:00,73.5,51.0,30.12,SSW,198,0.0,5.0,46,0.00,,,0.00,492,weatherlink.com 1.10,2013-10-08 19:47:00,
2013-10-08 15:02:00,73.2,53.0,30.12,South,184,0.0,3.0,50,0.00,,,0.00,51,weatherlink.com 1.10,2013-10-08 20:02:00,
2013-10-08 15:17:00,72.7,52.0,30.11,SSW,194,0.0,5.0,49,0.00,,,0.00,132,weatherlink.com 1.10,2013-10-08 20:17:00,
2013-10-08 15:32:00,73.2,53.0,30.11,SSW,202,0.0,4.0,49,0.00,,,0.00,480,weatherlink.com 1.10,2013-10-08 20:32:00,
2013-10-08 15:47:00,73.2,52.0,30.11,SSW,198,0.0,3.0,47,0.00,,,0.00,445,weatherlink.com 1.10,2013-10-08 20:47:00,
2013-10-08 16:02:00,73.5,51.0,30.11,South,188,1.0,2.0,45,0.00,,,0.00,408,weatherlink.com 1.10,2013-10-08 21:02:00,
2013-10-08 16:17:00,72.8,52.0,30.11,SW,222,2.0,2.0,48,0.00,,,0.00,51,weatherlink.com 1.10,2013-10-08 21:17:00,
2013-10-08 16:32:00,71.8,50.0,30.11,South,188,0.0,3.0,47,0.00,,,0.00,44,weatherlink.com 1.10,2013-10-08 21:32:00,
2013-10-08 16:47:00,71.4,51.0,30.11,SSW,192,0.0,1.0,49,0.00,,,0.00,40,weatherlink.com 1.10,2013-10-08 21:47:00,
2013-10-08 17:02:00,70.8,52.0,30.11,SSW,192,0.0,2.0,51,0.00,,,0.00,81,weatherlink.com 1.10,2013-10-08 22:02:00,
2013-10-08 17:17:00,69.9,52.0,30.11,SSW,192,0.0,1.0,54,0.00,,,0.00,98,weatherlink.com 1.10,2013-10-08 22:17:00,
2013-10-08 17:32:00,69.2,52.0,30.11,SSW,192,1.0,1.0,55,0.00,,,0.00,63,weatherlink.com 1.10,2013-10-08 22:32:00,
2013-10-08 17:47:00,68.3,53.0,30.11,SSW,192,0.0,0.0,58,0.00,,,0.00,23,weatherlink.com 1.10,2013-10-08 22:47:00,
2013-10-08 18:02:00,66.7,52.0,30.11,SSW,192,0.0,0.0,60,0.00,,,0.00,16,weatherlink.com 1.10,2013-10-08 23:02:00,
2013-10-08 18:17:00,65.6,51.0,30.11,SSW,192,0.0,0.0,60,0.00,,,0.00,7,weatherlink.com 1.10,2013-10-08 23:17:00,
2013-10-08 18:32:00,64.2,51.0,30.10,SSW,192,0.0,0.0,63,0.00,,,0.00,0,weatherlink.com 1.10,2013-10-08 23:32:00,
2013-10-08 18:47:00,63.0,51.0,30.11,SSW,192,0.0,0.0,66,0.00,,,0.00,0,weatherlink.com 1.10,2013-10-08 23:47:00,
2013-10-08 19:02:00,61.8,51.0,30.11,SSW,192,0.0,0.0,68,0.00,,,0.00,0,weatherlink.com 1.10,2013-10-09 00:02:00,
2013-10-08 19:17:00,60.9,50.0,30.11,SSW,192,0.0,0.0,68,0.00,,,0.00,0,weatherlink.com 1.10,2013-10-09 00:17:00,
2013-10-08 19:32:00,60.7,50.0,30.11,SSW,192,0.0,0.0,68,0.00,,,0.00,0,weatherlink.com 1.10,2013-10-09 00:32:00,
2013-10-08 19:47:00,60.9,50.0,30.11,SSW,192,0.0,0.0,68,0.00,,,0.00,0,weatherlink.com 1.10,2013-10-09 00:47:00,
2013-10-08 20:02:00,60.4,50.0,30.12,SSW,192,0.0,0.0,69,0.00,,,0.00,0,weatherlink.com 1.10,2013-10-09 01:02:00,
2013-10-08 20:16:00,59.8,50.0,30.12,SSW,192,0.0,0.0,70,0.00,,,0.00,0,weatherlink.com 1.10,2013-10-09 01:16:00,
2013-10-08 20:31:00,59.0,50.0,30.13,SSW,192,0.0,0.0,71,0.00,,,0.00,0,weatherlink.com 1.10,2013-10-09 01:31:00,
2013-10-08 20:46:00,58.0,49.0,30.13,SSW,192,0.0,0.0,73,0.00,,,0.00,0,weatherlink.com 1.10,2013-10-09 01:46:00,
2013-10-08 21:01:00,57.0,49.0,30.13,SSW,192,0.0,1.0,75,0.00,,,0.00,0,weatherlink.com 1.10,2013-10-09 02:01:00,
2013-10-08 21:16:00,56.3,49.0,30.13,SSW,192,0.0,0.0,77,0.00,,,0.00,0,weatherlink.com 1.10,2013-10-09 02:16:00,
2013-10-08 21:31:00,55.5,49.0,30.14,SSW,192,0.0,0.0,79,0.00,,,0.00,0,weatherlink.com 1.10,2013-10-09 02:31:00,
2013-10-08 21:46:00,55.2,49.0,30.14,SSW,192,0.0,0.0,80,0.00,,,0.00,0,weatherlink.com 1.10,2013-10-09 02:46:00,
2013-10-08 22:01:00,56.3,50.0,30.14,SSW,192,0.0,1.0,78,0.00,,,0.00,0,weatherlink.com 1.10,2013-10-09 03:01:00,
2013-10-08 22:16:00,56.6,49.0,30.14,SSW,192,0.0,1.0,77,0.00,,,0.00,0,weatherlink.com 1.10,2013-10-09 03:16:00,
2013-10-08 22:31:00,56.0,50.0,30.14,SSW,192,0.0,0.0,79,0.00,,,0.00,0,weatherlink.com 1.10,2013-10-09 03:31:00,
2013-10-08 22:46:00,55.1,49.0,30.14,SSW,192,0.0,0.0,80,0.00,,,0.00,0,weatherlink.com 1.10,2013-10-09 03:46:00,
2013-10-08 23:01:00,54.9,49.0,30.14,SSW,192,0.0,0.0,81,0.00,,,0.00,0,weatherlink.com 1.10,2013-10-09 04:01:00,
2013-10-08 23:16:00,54.7,49.0,30.15,SSW,192,0.0,1.0,81,0.00,,,0.00,0,weatherlink.com 1.10,2013-10-09 04:16:00,
2013-10-08 23:31:00,54.5,49.0,30.14,SSW,192,0.0,0.0,82,0.00,,,0.00,0,weatherlink.com 1.10,2013-10-09 04:31:00,
2013-10-08 23:46:00,54.7,49.0,30.14,SSW,192,0.0,0.0,82,0.00,,,0.00,0,weatherlink.com 1.10,2013-10-09 04:46:00,